Volver al catálogo

STARLINK-34134

ActivoComunicacionesVLEO
NORAD 63899·PAYLOAD·🇺🇸 United States

Lanzado May 10, 2025 desde Cape Canaveral Space Force Station

Loading…

Próximos Pases (próximas 24 horas)

TLE

ActualizadoSource: CelesTrak SupGP

Época: Sep 15, 2026, 02:59 UTC

1 63899C 25095K   26258.12479167  .00028772  00000+0  10419-2 0  2586
2 63899  42.9995 186.5033 0001323 269.2309 251.9063 15.27571802    16

Sigue STARLINK-34134 en tiempo real con AllMySat

Download on the App Store